Hourly Data Report for October 16, 2020

VICTORIA UNIVERSITY CS
BRITISH COLUMBIA
Current Station Operator: ECCC - MSC

48°27'25.200" N
123°18'16.600" W
60.10 m
1018598
71783
WYJ

Download Data

Hourly Data (October 2020)
Hourly Data Report for October 16, 2020
TIME
LST
Temp Definition
°C
Dew Point Definition
°C
Rel Hum Definition
%
Precip. Amount Definition
mm

Wind Dir Definition
10's deg

Wind Spd Definition
km/h
Visibility Definition
km
Stn Press Definition
kPa
Hmdx Definition


Wind Chill Definition


Weather Definition


00:00 9.8 7.9 88 0.0 24 2   102.12     LegendNANA
01:00 10.0 7.5 84 0.0 24 4   102.07     LegendNANA
02:00 9.9 8.0 88 0.0 24 3   101.93     LegendNANA
03:00 10.0 8.9 93 0.0 22 2   101.82     LegendNANA
04:00 9.9 9.0 94 0.0 10 1   101.73     LegendNANA
05:00 9.9 8.8 93 0.0 20 5   101.60     LegendNANA
06:00 9.7 9.0 96 0.0 16 5   101.45     LegendNANA
07:00 9.7 9.1 96 0.0 16 9   101.37     LegendNANA
08:00 10.1 9.6 96 0.0 15 6   101.27     LegendNANA
09:00 11.2 10.8 97 0.0 15 5   101.17     LegendNANA
10:00 15.6 14.2 91 0.0 24 12   101.08     LegendNANA
11:00 15.9 14.5 91 0.0 24 12   101.01     LegendNANA
12:00 15.5 14.7 95 0.0 24 13   101.01     LegendNANA
13:00 16.2 14.5 89 0.0 25 13   100.88     LegendNANA
14:00 16.9 14.2 84 0.0 25 13   100.90     LegendNANA
15:00 16.3 13.8 86 0.0 25 11   100.89     LegendNANA
16:00 15.9 13.5 86 0.0 24 7   100.90     LegendNANA
17:00 14.8 11.7 82 0.0 34 5   100.93     LegendNANA
18:00 13.8 11.8 88 0.0 26 4   100.97     LegendNANA
19:00 13.8 11.1 84 0.0 25 8   100.98     LegendNANA
20:00 13.0 10.5 85 0.0 25 8   100.99     LegendNANA
21:00 12.3 9.8 85 0.0 25 7   101.00     LegendNANA
22:00 12.2 9.9 86 0.0 25 5   101.04     LegendNANA
23:00 12.3 9.8 85 0.0 26 5   101.15     LegendNANA

Notes on Data Quality.

Legend

  • E = Estimated
  • M = Missing
  • NA = Not Available*
  • [empty] = Indicates an unobserved value
Date modified: